Погода Андрюшкино

Погода Андрюшкино : погода сейчас, прогноз погоды и архив. Всё, что Вы хотите узнать о погоде Андрюшкино!

Поиск расширенной информации на нашем сайте:

Полезная информация: Смотрите подробности профнастил ростов у нас.

Другие новости

Новости СМИ2

Главная страница сайта

Новости сайта

02.10.2013

Напоминаем, что на нашем новом сайте вы можете получить высокодетализированные прогнозы погоды по пунктам России, СНГ и мира (включающие важные для авиации метеовеличины, такие как направление и скорость ветра, видимость, явления погоды, количество и форма облачности, нижняя и верхняя граница облачности), а также ознакомиться с разнообразными материалами по авиационной метеорологии и подборкой полезных ссылок на эту тему.

Сайт Метеоцентр.Азия посвящён разработке технологий оптимизации авиаметеорологического обслуживания, включая проектирование и перспективное создание нескольких автоматизированных авиаметеорологических систем:
- система выпуска высокодетальных прогностических карт явлений погоды для нижнего воздушного пространства по России и ближнему зарубежью;
- система верификации прогнозов TAF (выпускаемых синоптиками официальных АМСГ РФ и ближнего зарубежья) и AUTOTAF (выпускаемых сайтом Метеоцентр.Азия) - выявление ошибок, онлайн-сопоставление с фактической погодой METAR, автоматическое внесение коррективов в прогнозы при резком отклонении фактической погоды от прогноза, подсчёт оправдываемости прогнозов по элементам и в целом;
- система обработки, анализа и отображения авиаметеорологической информации для применения провайдерами метеорологической информации.

Рекомендуем: Правила обследования зданий и сооружений.

Погода Андрюшкино - сегодня

Время (UTC), дата Ветер
(°,м/с) 
Видим.   Явления Облачность Т
(°С)
Тd
(°С)
f(%) Тe
(°С)
Pmin
(гПа)
dP
(гПа)
Po
(мм)
O2
(г/м3)
Тmin Tmax R s Состояние
почвы
21 26.04.17 050 (СВ) 20000 м    10/10 210 м 
[St]
-8.5 -8.4 100 -10  1012.3  -1  758  316  -9.4      95  равномерный
сухой снег
100% 
00 27.04.17 070 (В) 20000 м    10/10 210 м 
[St]
-8.4 -8.7 98 -10  1011.7  -0.6  757  316           
03 27.04.17 050 (СВ) 20000 м    10/8 210 м средняя 
[St|As op]
-9.2 -9.9 95 -11  1010.7  -1  756  316           
06 27.04.17 040 (СВ) 20000 м  в посл. час снег  10/8 210 м средняя 
[St|As op]
-9.5 -10.7 91 -9  1010.1  -0.6  756  317           
09 27.04.17 070 (В) 20000 м    10/8 210 м средняя 
[St|As op]
-9.8 -10.2 97 -10  1009.5  -0.6  756  317  -1  -8  0.0     
12 27.04.17 070 (В) 0500 м  туман  ?/?  
-10.5 -10.5 100 -10  1009.1  -0.4  755  318           
15 27.04.17 тихо ()   0500 м  туман  ?/?  
-11.2 -11.2 100 -11  1008  -1.1  754  318           
18 27.04.17 040 (СВ) 1000 м  дымка{туман}  10/0 
-13 -13 100 -13  1007.3  -0.7  754  320           
21 27.04.17 030 (СВ) 4000 м  дымка  10/10 210 м 
[St]
-14.5 -14.5 100 -15  1007  -0.3  754  322  -14.7      95  равномерный
сухой снег
100% 
00 28.04.17 010 (С) 20000 м    9/3 200 м верхняя 
[St|Ci fib]
-12.4 -12.4 100 -14  1005.8  -1.2  753  319           
03 28.04.17 010 (С) 20000 м    6/0 средняя, верхняя 
[As trans|Ci fib]
-12 -12.6 95 -15  1005  -0.8  752  318           
06 28.04.17 360 (С) 20000 м    3/0 средняя 
[As trans]
-10.5 -11.1 95 -14  1004.3  -0.7  752  316           
09 28.04.17 030 (СВ) 20000 м    1/0 средняя 
[As trans]
-13.6 -14.2 95 -17  1004.1  -0.2  752  320    -10       
12 28.04.17 010 (С) 20000 м    1/0 средняя 
[Ac trans]
-19.2 -19.8 95 -22  1004.3  0.1  752  327           
15 28.04.17 010 (С) 2000 м  дымка  3/3 300 м 
[St]
-21.1 -21.7 95 -24  1004.3  752  330           
00 29.04.17 010 (С) 20000 м    8/0 средняя, верхняя 
[Ac As|Ci fib]
-14.2 -14.8 95 -18  1005.6  0.8  753  321           
03 29.04.17 360 (С) 20000 м    8/0 средняя, верхняя 
[Ac As|Ci fib]
-11.8 -12.4 95 -16  1005.7  0.1  753  318           
06 29.04.17 020 (С) 20000 м    9/0 средняя, верхняя 
[Ac As|Ci fib]
-10.2 -10.8 95 -13  1006.4  0.7  753  316           
09 29.04.17 020 (С) 20000 м    8/3 200 м средняя, верхняя 
[St|Ac As|Ci fib]
-12.4 -13 95 -17  1007.7  1.3  754  320    -10       
12 29.04.17 030 (СВ) 0500 м  туман  ?/?  
-10.6 -10.6 100 -15  1008.8  1.1  755  318           
15 29.04.17 010 (С) 0500 м  туман  ?/?  
-10.2 -10.2 100 -12  1009.6  0.8  756  317           
18 29.04.17 020 (С) 0500 м  туман  ?/?  
-9.6 -9.5 100 -11  1010.4  0.8  756  317           
21 29.04.17 020 (С) 0500 м  туман{снег}  ?/?  
-9.3 -9.2 100 -11  1011.1  0.7  757  317  -12.7      95  равномерный
сухой снег
100% 
00 30.04.17 360 (С) 20000 м  {туман}  10/10 210 м 
[St]
-8.2 -8.4 98 -10  1011.8  0.7  757  315           
03 30.04.17 360 (С) 20000 м  {снег}  9/9 270 м 
[St]
-6.4 -8 88 -6  1011.8  757  313           
Время (UTC), дата Ветер
(°,м/с) 
Видим.   Явления Облачность Т
(°С)
Тd
(°С)
f(%) Тe
(°С)
Pmin
(гПа)
dP
(гПа)
Po
(мм)
O2
(г/м3)
Тmin Tmax R s Состояние
почвы

Для получения пояснительной информации подведите курсор к названию столбца.

ПОГОДА Андрюшкино - архив

Всё, что Вы хотите узнать о погоде Андрюшкино - удобно и подробно!

Выберите нужную дату (начиная с 1 января 2015* года) и нажмите кнопку "Найти".
Будут отображены архивные сводки погоды по пункту Андрюшкино, начиная с указанной даты.


Отображать данные в формате CSV (для использования в таблицах Excel)


Внимание! Наш архив погоды предназначен исключительно для личного некоммерческого использования в познавательных целях. Если Вам необходимы официальные справки о состоянии погоды (для производственных, юридических, коммерческих и т.п. целей), обращайтесь в органы Росгидромета.

*Примечание: данная дата относится к архиву по метеостанциям СССР (Россия, СНГ, Балтия).
Архив по метеостанциям Зарубежной Европы и Азии (кроме Китая) хранится 10 дней, по другим регионам земного шара (Китай, Африка, Америка, Австралия, Океания) - 1 день.

Андрюшкино - район местоположения метеостанции


Название, широта, долгота, высота метеостанции:
Андрюшкино 69.2°ш. 154.4°д. 46 м над ур. моря [Российская Федерация]

Дополнительная информация

В oтличие oт бoльшинства пoгoдных сайтoв мы публикуем пoдрoбную метеoинфoрмацию в детальнoм прoфессиoнальнoм фoрмате.

Характеристики температуры и влажнoсти вoздуха измеряются на высoте 2 м в тени вдали oт зданий и деревьев.
Скoрoсть ветра измеряется на высoте 10 м (на урoвне рoста челoвека скoрoсть ветра ниже в 1.5-2 раза). Если метеoстанция нахoдится в гoрoде или в лесу, тo скoрoсть ветра занижена на 2-4 м/с пo сравнению с oткрытым местoм. Скoрoсть ветра над акватoриями крупных рек и oзёр, а также на вершинах хoлмoв на 2-5 м/с выше, чем в oбычных услoвиях.
Атмoсфернoе давление в разных тoчках местнoсти мoжет значительнo oтличаться oт давления на метеoстанции, в зависимoсти oт услoвий рельефа (при пoдъёме на 10 м давление пoнижается примернo на 1 мм рт.ст.).